Flag for Germany Weather past 2 weeks in Rodgau, Hesse, Germany

Now
66 °F

Partly sunny.


Feels Like: 66 °F
Forecast: 49 / 67 °F
Wind: 5 mph from Northwest

Location: Frankfurt / M-Flughafen

Current Time: Sep 1, 2014 at 3:58:04 PM

Latest Report: Sep 1, 2014 at 3:00 PM


Visibility: 25 mi

Pressure: 30.14 "Hg

Humidity: 55%

Dew point: 49 °F

Location of RodgauLocation

Historic Weather in Rodgau — Graph

°F

Rodgau temperature yesterday

Maximum temperature yesterday: 66 °F (at 1:00 PM)
Minimum temperature yesterday: 58 °F (at 11:00 PM)
Average temperature yesterday: 61 °F

Past Weeks' High & Low Weather Summary

 TemperatureHumidityPressure
High75 °F (Aug 29, 3:00 PM)96% (Aug 19, 7:00 AM)30.15 "Hg (Aug 19, 7:00 AM)
Low46 °F (Aug 22, 4:00 AM)32% (Aug 22, 5:00 PM)29.66 "Hg (Aug 26, 8:00 AM)
Average60 °F74%29.97 "Hg
* Reported Aug 17 3:00 PM — Sep 1 3:00 PM, Rodgau, Weather by CustomWeather, © 2014

Note: Actual official high and low records may vary slightly from our data, if they occured in-between our weather recording intervals... More about our weather records

Advertising

Rodgau weather history for previous 24 hours

 ConditionsComfort  
Time TempWeatherWind HumidityBarometerVisibility
3:00 PM
Sep 1
66 °FPartly sunny.5 mph55%30.14 "Hg25 mi
2:00 PM63 °FScattered clouds.2 mph63%30.14 "Hg25 mi
1:00 PM61 °FPartly sunny.3 mph69%30.15 "Hg25 mi
12:00 PM62 °FOvercast.2 mph69%30.14 "Hg22 mi
11:00 AM63 °FPartly sunny.1 mph63%30.14 "Hg19 mi
10:00 AM60 °FPassing clouds.1 mph71%30.12 "Hg19 mi
9:00 AM58 °FPartly sunny.5 mph78%30.12 "Hg12 mi
8:00 AM57 °FOvercast.3 mph80%30.11 "Hg12 mi
7:00 AM55 °FScattered clouds.2 mph88%30.10 "Hg9 mi
6:00 AM54 °FPassing clouds.2 mph87%30.09 "Hg12 mi
4:00 AM52 °FPassing clouds.1 mph90%30.07 "Hg16 mi
3:00 AM54 °FPassing clouds.3 mph86%30.06 "Hg19 mi
2:00 AM54 °FPassing clouds.1 mph87%30.05 "Hg19 mi
1:00 AM56 °FPassing clouds.3 mph84%30.04 "Hg19 mi
12:00 AM58 °FOvercast.5 mph85%30.03 "Hg19 mi
11:00 PM
Aug 31
58 °FSprinkles. Overcast.5 mph85%30.02 "Hg19 mi
10:00 PM59 °FOvercast.2 mph81%30.01 "Hg22 mi
9:00 PM60 °FOvercast.2 mph78%29.99 "Hg28 mi
8:00 PM60 °FPartly sunny.3 mph80%29.97 "Hg28 mi
7:00 PM60 °FPartly sunny.6 mph81%29.96 "Hg25 mi
6:00 PM61 °FOvercast.3 mph77%29.95 "Hg28 mi
4:00 PM61 °FSprinkles. Overcast.6 mph79%29.94 "Hg16 mi
3:00 PM66 °FPartly sunny.5 mph58%29.93 "Hg22 mi
Weather by CustomWeather, © 2014

See weather overviewHow to use our weather pages